Location: Julian California
(33.0790°N, 116.6010°W)
Time: 14:37:05
(UTC-07:00)

Centaur AC-125 - Pass Details

Date: 14 June 2018
Orbit: 327 x 24445 km, 26.7° (Epoch: 20 August)

Event Time Altitude Azimuth Distance (km) Brightness Sun altitude
Rises 20:40:13 0° 233° (SW) 4,809 7.4 -8.6°
Reaches altitude 10° 20:46:09 10° 206° (SSW) 2,126 5.2 -9.6°
Maximum altitude 20:47:55 12° 180° (S) 1,580 4.3 -9.9°
Enters shadow 20:48:58 11° 158° (SSE) 1,470 4.0 -10.1°
